CW1839 Weather Reports


Display with metric or nautical units.
time (UTC)temp
F
wind
direction
speed
MPH
gust
MPH
rain 1hr
in
rain 24hr
in
rain mn
in
humidity
%
barometer
mb
20181212064530 46 320 0.0 0.0 0.00 0.00 0.00 78 1014.6
20181212063021 45 320 0.0 0.0 0.00 0.00 0.00 78 1014.5
20181212060021 45 320 0.0 0.0 0.00 0.00 0.00 78 1014.2
20181212054505 45 322 0.0 0.0 0.00 0.00 0.00 78 1014.2
20181212044519 46 316 0.0 0.0 0.00 0.00 0.00 77 1014.1
20181212043002 46 316 0.0 0.0 0.00 0.00 0.00 76 1014.0
20181212041630 46 316 0.0 0.0 0.00 0.00 0.00 75 1013.9
20181212040008 46 320 0.0 0.0 0.00 0.00 0.00 73 1014.0
20181212033026 46 318 0.0 0.0 0.00 0.00 0.00 70 1014.1
20181212031508 46 318 0.0 0.0 0.00 0.00 0.00 70 1014.1
20181212030025 46 315 0.0 0.0 0.00 0.00 0.00 69 1014.0
20181212024516 46 320 0.0 0.0 0.00 0.00 0.00 68 1013.9
20181212023046 46 278 0.0 0.0 0.00 0.00 0.00 66 1013.9
20181212021505 46 304 0.0 0.0 0.00 0.00 0.00 66 1013.9
20181212013023 46 311 0.0 0.0 0.00 0.00 0.00 70 1014.0
20181212011505 46 311 0.0 0.0 0.00 0.00 0.00 70 1013.9
20181212010007 47 311 0.0 0.0 0.00 0.00 0.00 70 1013.8
20181212001554 48 322 0.0 0.0 0.00 0.00 0.00 69 1013.6
20181212000050 49 322 0.0 0.0 0.00 0.00 0.00 66 1013.6
20181211234527 50 322 0.0 0.0 0.00 0.00 0.00 63 1013.5
20181211233020 50 322 0.0 0.0 0.00 0.00 0.00 61 1013.7
20181211231545 51 322 0.0 0.0 0.00 0.00 0.00 60 1013.7
20181211230022 51 322 0.0 0.0 0.00 0.00 0.00 59 1013.8
20181211224520 51 347 0.0 0.0 0.00 0.00 0.00 64 1013.9
20181211223058 51 347 0.0 0.0 0.00 0.00 0.00 66 1014.0
20181211221514 51 346 0.0 0.0 0.00 0.00 0.00 68 1014.0
20181211214517 51 347 0.0 0.0 0.00 0.00 0.00 68 1014.0
20181211213016 51 347 0.0 0.0 0.00 0.00 0.00 68 1014.0
20181211210007 52 347 0.0 0.0 0.00 0.00 0.00 67 1014.0
20181211203030 52 347 0.0 0.0 0.00 0.00 0.00 65 1013.9
20181211201508 51 347 0.0 0.0 0.00 0.00 0.00 66 1013.7
20181211194514 51 347 0.0 0.0 0.00 0.00 0.00 65 1013.4
20181211193013 52 347 0.0 0.0 0.00 0.00 0.00 64 1013.3
20181211184526 53 347 0.0 0.0 0.00 0.00 0.00 59 1013.3
20181211183002 53 347 0.0 0.0 0.00 0.00 0.00 59 1013.2
20181211181515 53 347 0.0 0.0 0.00 0.00 0.00 58 1013.1
20181211174555 53 25 0.0 0.0 0.00 0.00 0.00 57 1013.0
20181211173009 53 25 0.0 0.0 0.00 0.00 0.00 58 1013.0
20181211170008 53 42 0.0 0.0 0.00 0.00 0.00 60 1012.6
20181211164535 53 329 0.0 0.0 0.00 0.00 0.00 59 1012.5
20181211163007 53 311 0.0 0.0 0.00 0.00 0.00 56 1012.4
20181211161502 53 298 0.0 0.0 0.00 0.00 0.00 54 1012.2
20181211160011 54 264 0.0 0.0 0.00 0.00 0.00 54 1012.0
20181211153013 55 282 0.0 0.0 0.00 0.00 0.00 53 1011.9
20181211151528 56 248 2.0 0.0 0.00 0.00 0.00 52 1011.8
20181211144535 56 237 5.0 0.0 0.00 0.00 0.00 51 1011.7
20181211141524 57 213 1.0 0.0 0.00 0.00 0.00 46 1011.5
20181211140003 57 241 1.0 0.0 0.00 0.00 0.00 43 1011.7
20181211134522 57 227 0.0 0.0 0.00 0.00 0.00 44 1011.7
20181211133004 57 241 0.0 0.0 0.00 0.00 0.00 44 1011.7
20181211131517 57 258 0.0 0.0 0.00 0.00 0.00 44 1011.7
20181211124515 57 31 0.0 0.0 0.00 0.00 0.00 50 1011.8
20181211123024 57 31 0.0 0.0 0.00 0.00 0.00 49 1011.8
20181211121503 57 169 0.0 0.0 0.00 0.00 0.00 50 1011.5
20181211120024 57 34 2.0 0.0 0.00 0.00 0.00 46 1011.3
20181211114502 58 61 6.0 0.0 0.00 0.00 0.00 43 1011.1
20181211103015 60 232 4.0 0.0 0.00 0.00 0.00 47 1011.4
20181211101520 58 263 5.0 0.0 0.00 0.00 0.00 56 1011.7
20181211100017 58 191 7.0 0.0 0.00 0.00 0.00 56 1011.8
20181211094527 57 220 7.0 0.0 0.00 0.00 0.00 57 1012.0
20181211084534 55 258 3.0 0.0 0.00 0.00 0.00 57 1011.8
20181211081540 54 243 2.0 0.0 0.00 0.00 0.00 56 1011.8
20181211080015 53 236 3.0 0.0 0.00 0.00 0.00 58 1011.7
20181211074509 52 261 2.0 0.0 0.00 0.00 0.00 58 1011.7
20181211073014 50 280 2.0 0.0 0.00 0.00 0.00 60 1011.5
20181211070034 49 270 1.0 0.0 0.00 0.00 0.00 66 1011.3